Alvadore, OR

8:43 AM PST on February 27, 2017 (GMT -0800)
Mahlon Sweet

Weather History for KEUG - August, 2014

Change the Weather History Date:

Tuesday, August 19, 2014

  Actual Average Record
Temperature  
Mean Temperature 74 °F 67 °F  
Max Temperature 91 °F 83 °F 104 °F (2016)
Min Temperature 57 °F 51 °F 40 °F (1916)
Degree Days  
Heating Degree Days 0 1  
Month to date heating degree days 0 19  
Since 1 June heating degree days 113 212  
Since 1 July heating degree days 6 55  
Cooling Degree Days 9 3  
Month to date cooling degree days 148 66  
Year to date cooling degree days 350 183  
Since 1 June cooling degree days 347 178  
Growing Degree Days 24 (Base 50)    
Moisture  
Dew Point 56 °F    
Average Humidity 57    
Maximum Humidity 87    
Minimum Humidity 27    
Precipitation  
Precipitation 0.00 in 0.02 in 1.52 in (1993)
Month to date precipitation 0.18 0.28  
Year to date precipitation 22.99 25.68  
Sea Level Pressure  
Sea Level Pressure 29.85 in    
Wind  
Wind Speed 6 mph (WNW)    
Max Wind Speed 18 mph    
Max Gust Speed 22 mph    
Visibility 10 miles    
Events      
T = Trace of Precipitation, MM = Missing Value Source: NWS Daily Summary

Daily Weather History Graph

Daily Weather History Graph

Search for Another Location

Airport or City:

Trip Planner

Search our weather history database for the weather conditions in past years. The results will help you decide how hot, cold, wet, or windy it might be!

Date:

Astronomy

Aug. 19, 2014 Rise Set
Actual Time 6:21 AM PDT 8:10 PM PDT
Civil Twilight 5:50 AM PDT 8:41 PM PDT
Nautical Twilight 5:12 AM PDT 9:19 PM PDT
Astronomical Twilight 4:31 AM PDT 10:00 PM PDT
Moon 1:13 AM PDT (8/19) 4:15 PM PDT (8/19)
Length of Visible Light 14h 51m
Length of Day
13h 49m
Waning Crescent, 28% of the Moon is Illuminated
Aug 19
Waning Crescent
Aug 25
New
Sep 2
First Quarter
Sep 8
Full
Sep 15
Last Quarter

Hourly Weather History & Observations

Time (PDT) Temp. Heat Index Dew Point Humidity Pressure Visibility Wind Dir Wind Speed Gust Speed Precip Events Conditions
12:54 AM 68.0 °F - 57.9 °F 70% 29.83 in 10.0 mi SW 5.8 mph - N/A   Clear
1:54 AM 66.9 °F - 57.9 °F 73% 29.83 in 10.0 mi Calm Calm - N/A   Clear
2:54 AM 64.9 °F - 57.9 °F 78% 29.83 in 10.0 mi SW 5.8 mph - N/A   Clear
3:54 AM 64.9 °F - 57.0 °F 75% 29.84 in 10.0 mi West 3.5 mph - N/A   Clear
4:54 AM 60.1 °F - 55.0 °F 83% 29.85 in 10.0 mi NNE 4.6 mph - N/A   Clear
5:54 AM 60.1 °F - 55.0 °F 83% 29.85 in 10.0 mi SSW 5.8 mph - N/A   Scattered Clouds
6:54 AM 59.0 °F - 55.0 °F 87% 29.87 in 10.0 mi Calm Calm - N/A   Mostly Cloudy
7:54 AM 63.0 °F - 57.0 °F 81% 29.87 in 10.0 mi SSW 4.6 mph - N/A   Mostly Cloudy
8:54 AM 69.1 °F - 55.9 °F 63% 29.88 in 10.0 mi SSW 8.1 mph - N/A   Mostly Cloudy
9:54 AM 72.0 °F - 55.0 °F 55% 29.88 in 10.0 mi Variable 3.5 mph - N/A   Mostly Cloudy
10:54 AM 77.0 °F - 55.0 °F 47% 29.88 in 10.0 mi Variable 4.6 mph - N/A   Scattered Clouds
11:54 AM 81.0 °F 80.8 °F 55.9 °F 42% 29.87 in 10.0 mi WNW 6.9 mph - N/A   Scattered Clouds
12:54 PM 84.0 °F 83.3 °F 57.0 °F 40% 29.85 in 10.0 mi NW 5.8 mph - N/A   Scattered Clouds
1:54 PM 86.0 °F 84.5 °F 55.0 °F 35% 29.84 in 10.0 mi Variable 4.6 mph - N/A   Scattered Clouds
2:54 PM 89.1 °F - 51.1 °F 27% 29.83 in 10.0 mi NW 6.9 mph - N/A   Scattered Clouds
3:54 PM 90.0 °F - 51.1 °F 26% 29.81 in 10.0 mi NNW 13.8 mph - N/A   Scattered Clouds
4:54 PM 89.1 °F 87.1 °F 55.0 °F 31% 29.81 in 10.0 mi NNW 13.8 mph - N/A   Partly Cloudy
5:54 PM 87.1 °F 85.7 °F 55.9 °F 35% 29.81 in 10.0 mi NNW 16.1 mph - N/A   Partly Cloudy
6:54 PM 82.9 °F 82.1 °F 55.9 °F 39% 29.81 in 10.0 mi NNW 16.1 mph - N/A   Clear
7:54 PM 77.0 °F - 57.0 °F 50% 29.83 in 10.0 mi NNW 10.4 mph - N/A   Partly Cloudy
8:54 PM 72.0 °F - 57.9 °F 61% 29.86 in 10.0 mi WNW 3.5 mph - N/A   Scattered Clouds
9:54 PM 69.1 °F - 57.9 °F 68% 29.88 in 10.0 mi WNW 6.9 mph - N/A   Scattered Clouds
10:54 PM 66.9 °F - 57.0 °F 70% 29.89 in 10.0 mi Calm Calm - N/A   Scattered Clouds
11:54 PM 64.9 °F - 57.9 °F 78% 29.89 in 10.0 mi SW 4.6 mph - N/A   Clear